Regional Weather Roundup
Issued by NWS Midland/Odessa, TX

Current Version | Previous Version | Text Only | Print | Product List | Glossary On
Versions: 1 2 3 4 5 6 7 8 9 10 11 12 13 14 15 16 17 18 19 20 21 22 23 24 25 26 27 28 29 30 31 32 33 34 35 36 37 38 39 40 41 42 43 44 45 46 47 48 49 50
000
ASUS44 KMAF 010210
RWRMAF
MIDLAND AREA WEATHER ROUNDUP
NATIONAL WEATHER SERVICE MIDLAND TX
900 PM CDT SAT APR 30 2016

...IN SOUTHWEST TEXAS AND SOUTHEAST NEW MEXICO...

CITY           SKY/WX    TMP DP  RH WIND       PRES   REMARKS
ALPINE         CLEAR     70  10  10 SE5       29.86S
ANDREWS        FAIR      68  30  24 E6        29.79R
ARTESIA        CLEAR     70  25  18 SW6       29.75R
BIG SPRING     CLEAR     70  42  36 NE13      29.82R
CARLSBAD       CLEAR     71  20  14 CALM      29.73R
DRYDEN           N/A     80  30  16 SE13      29.73R
FORT STOCKTON  CLEAR     74  18  12 S7        29.74R
GUAD PASS      CLEAR     66  12  12 CALM      29.85R
HOBBS          PTCLDY    72  23  16 S6        29.79R
MARFA          CLEAR     67  12  12 E5        29.83S
MIDLAND AIRPK  CLEAR     75  28  18 E10       29.80R
MIDLAND INTL   CLEAR     72  28  19 E9        29.78R
ODESSA         CLEAR     72  26  18 E9        29.78R
PECOS          CLEAR     73  19  12 E8        29.71R
PRESIDIO       FAIR      83  13   7 NE3       29.66S
SEMINOLE       CLEAR     67  31  26 E7        29.80R
SNYDER           N/A     68  43  39 E6        29.83R
WINK           CLEAR     73  24  16 E8        29.72R
$$
...OTHER STATIONS IN TEXAS...

CITY           SKY/WX    TMP DP  RH WIND       PRES   REMARKS
ABILENE        CLEAR     67  50  54 NE7       29.83R
AMARILLO       PTCLDY    51  39  63 N16       29.96R
AUSTIN         PTCLDY    71  67  87 N7        29.76R
BROWNSVILLE    PTCLDY    79  76  90 E5        29.68R
CORPUS CHRISTI MOCLDY    80  75  84 E8        29.70R
DALLAS FTW     PTCLDY    69  57  65 N3        29.82R
DEL RIO        CLEAR     79  44  28 E7        29.70R
EL PASO        PTCLDY    72  16  12 NE6       29.71R
HOUSTON INT    PTCLDY    76  72  87 E7        29.74R
LUBBOCK        PTCLDY    63  41  44 E17       29.85R
SAN ANGELO     PTCLDY    69  46  43 E9        29.79R
SAN ANTONIO    PTCLDY    76  61  59 NE5       29.75R
WACO           CLEAR     69  64  84 N5        29.80R
WICHITA FALLS  NOT AVBL
$$
...OTHER LOCATIONS IN NEW MEXICO...

CITY           SKY/WX    TMP DP  RH WIND       PRES   REMARKS
ALAMAGORDO     CLEAR     66  18  15 SE8       29.76R
ALBUQUERQUE    CLOUDY    51  44  77 N8        29.89R
CANNON AFB     CLOUDY    54  44  69 NE16      29.89R
CLOVIS         CLOUDY    54  39  58 NE15      29.91R
HOLLOMAN AFB   CLEAR     70  17  13 S12       29.73R
ROSWELL        MOCLDY    71  30  21 N16       29.75R
RUIDOSO          N/A     55  23  28 E5        29.92R
SANTA FE       CLOUDY    52  30  43 NW3       29.87R
TRUTH OR CONSE MOCLDY    67  21  17 W7        29.74R
TUCUMCARI      CLOUDY    57  36  45 NE23      29.92R
$$




USA.gov is the U.S. government's official web portal to all federal, state and local government web resources and services.